Location: Newark
(45.2500°N, 7.5833°E)
Time: 14:48:46
(UTC+00:00)

N. Korean satellite - Pass Details

Date: 24 December 2019
Orbit: 454 x 508 km, 97.2° (Epoch: 17 January)

Event Time Altitude Azimuth Distance (km) Brightness Sun altitude
Rises 17:28:44 0° 206° (SSW) 2,571 10.9 -16.3°
Reaches altitude 10° 17:31:26 10° 228° (SW) 1,684 10.3 -16.8°
Maximum altitude 17:33:45 16° 268° (W) 1,345 9.8 -17.2°
Drops below altitude 10° 17:36:03 10° 308° (NW) 1,675 9.8 -17.5°
Sets 17:38:45 0° 330° (NNW) 2,549 10.4 -18.0°
